Home > Weather > Lexington > Past weeks

Flag for USA Past Weather in Lexington, Virginia, USA — Yesterday and Last 2 Weeks

Now
72 °F

Mostly cloudy.


Feels Like: 69 °F
Forecast: 71 / 86 °F
Wind: 6 mph from West

Location: Hot Springs / Ingalls

Current Time: Jul 30, 2016 at 11:05:33 AM

Latest Report: Jul 30, 2016 at 10:36 AM


Visibility: 10 mi

Pressure: 30.15 "Hg

Humidity: 88%

Dew Point: 68 °F

Location of LexingtonLocation

Past Weather in Lexington — Graph

°F

Lexington Temperature Yesterday

Maximum temperature yesterday: 75 °F (at 5:56 PM)
Minimum temperature yesterday: 64 °F (at 4:55 AM)
Average temperature yesterday: 69 °F

High & Low Weather Summary for the Past Weeks

 TemperatureHumidityPressure
High84 °F (Jul 23, 3:14 PM)100% (Jul 15, 9:15 AM)30.38 "Hg (Jul 15, 9:15 AM)
Low61 °F (Jul 21, 4:36 AM)37% (Jul 23, 3:55 PM)29.99 "Hg (Jul 29, 12:56 AM)
Average72 °F80%30.21 "Hg
* Reported Jul 15 9:15 AM — Jul 30 9:56 AM, Lexington, Weather by CustomWeather, © 2016

Note: Actual official high and low records may vary slightly from our data, if they occured in-between our weather recording intervals... More about our weather records

Advertising

Lexington Weather History for the Previous 24 Hours

Scroll right to see more
 ConditionsComfort  
Time TempWeatherWind HumidityBarometerVisibility
9:56 AM
Sat, Jul 30
72 °FSunny.8 mph94%30.14 "Hg10 mi
9:15 AM72 °FSunny.8 mph83%30.14 "Hg10 mi
8:56 AM70 °FSunny.8 mph94%30.13 "Hg10 mi
8:15 AM70 °FSunny.9 mph94%30.13 "Hg10 mi
7:56 AM66 °FSunny.10 mph100%30.13 "Hg10 mi
7:35 AM66 °FSunny.10 mph100%30.12 "Hg10 mi
7:15 AM66 °FClear.10 mph100%30.12 "Hg10 mi
6:56 AM66 °FClear.12 mph100%30.12 "Hg10 mi
6:16 AM66 °FClear.12 mph100%30.10 "Hg10 mi
5:57 AM66 °FClear.13 mph100%30.10 "Hg10 mi
5:36 AM66 °FClear.12 mph100%30.09 "Hg10 mi
5:17 AM66 °FClear.9 mph100%30.09 "Hg10 mi
3:57 AM66 °FPartly cloudy.6 mph100%30.10 "Hg7 mi
3:37 AM66 °FPartly cloudy.7 mph100%30.10 "Hg10 mi
2:16 AM68 °FPassing clouds.5 mph100%30.11 "Hg10 mi
1:35 AM70 °FClear.5 mph88%30.12 "Hg10 mi
1:16 AM70 °FPartly cloudy.6 mph88%30.13 "Hg10 mi
12:55 AM70 °FMostly cloudy.6 mph88%30.14 "Hg10 mi
11:55 PM
Fri, Jul 29
70 °FOvercast.5 mph88%30.13 "Hg10 mi
11:15 PM70 °FClear.3 mph78%30.12 "Hg10 mi
10:15 PM70 °FClear.3 mph83%30.12 "Hg10 mi
9:35 PM70 °FPassing clouds.6 mph83%30.11 "Hg10 mi
8:35 PM70 °FSunny.3 mph83%30.11 "Hg10 mi
8:16 PM72 °FSunny.5 mph78%30.11 "Hg10 mi
7:16 PM72 °FScattered clouds.3 mph78%30.10 "Hg10 mi
6:56 PM72 °FPartly sunny.3 mph78%30.10 "Hg10 mi
6:16 PM73 °FScattered clouds.6 mph78%30.08 "Hg10 mi
5:56 PM75 °FScattered clouds.3 mph69%30.09 "Hg10 mi
5:16 PM73 °FCloudy.No wind74%30.08 "Hg10 mi
4:36 PM73 °FMore clouds than sun.No wind69%30.09 "Hg10 mi
2:35 PM72 °FCloudy.No wind78%30.09 "Hg10 mi
2:16 PM73 °FMore clouds than sun.6 mph74%30.10 "Hg10 mi
1:36 PM72 °FBroken clouds.9 mph94%30.09 "Hg10 mi
12:55 PM68 °FMore clouds than sun.7 mph100%30.10 "Hg10 mi
12:15 PM66 °FCloudy.9 mph100%30.09 "Hg7 mi
11:55 AM66 °FRain. Mostly cloudy.7 mph100%30.09 "Hg5 mi
11:35 AM66 °FMostly cloudy.7 mph100%30.08 "Hg10 mi
11:15 AM68 °FLow clouds.8 mph100%30.08 "Hg7 mi
Weather by CustomWeather, © 2016

See weather overviewHow to use our weather pages